TimeEST,TemperatureF,Dew PointF,Humidity,Sea Level PressureIn,VisibilityMPH,Wind Direction,Wind SpeedMPH,Gust SpeedMPH,PrecipitationIn,Events,Conditions,WindDirDegrees,DateUTC
12:15 AM,39.7,27.0,60,30.01,10.0,North,-9999.0,-,N/A,,Clear,0,2013-02-26 05:15:00
12:35 AM,40.1,26.8,59,30.01,10.0,North,-9999.0,-,N/A,,Clear,0,2013-02-26 05:35:00
12:55 AM,40.1,26.4,58,30.01,10.0,North,-9999.0,-,N/A,,Mostly Cloudy,0,2013-02-26 05:55:00
1:15 AM,40.3,26.4,58,30.00,10.0,North,-9999.0,-,N/A,,Overcast,0,2013-02-26 06:15:00
1:35 AM,40.5,26.4,57,29.99,10.0,North,-9999.0,-,N/A,,Overcast,0,2013-02-26 06:35:00
1:55 AM,40.5,26.4,57,29.98,10.0,North,-9999.0,-,N/A,,Overcast,0,2013-02-26 06:55:00
2:15 AM,40.3,26.1,57,29.96,10.0,North,-9999.0,-,N/A,,Scattered Clouds,0,2013-02-26 07:15:00
2:35 AM,40.1,26.2,58,29.96,10.0,North,-9999.0,-,N/A,,Clear,0,2013-02-26 07:35:00
2:55 AM,40.3,26.2,57,29.95,10.0,North,-9999.0,-,N/A,,Scattered Clouds,0,2013-02-26 07:55:00
3:15 AM,40.3,26.1,57,29.94,10.0,North,-9999.0,-,N/A,,Mostly Cloudy,0,2013-02-26 08:15:00
3:35 AM,40.1,26.4,58,29.94,10.0,North,-9999.0,-,N/A,,Overcast,0,2013-02-26 08:35:00
3:55 AM,40.1,27.5,61,29.93,10.0,North,-9999.0,-,N/A,,Overcast,0,2013-02-26 08:55:00
4:15 AM,39.7,28.0,63,29.91,10.0,North,-9999.0,-,N/A,,Overcast,0,2013-02-26 09:15:00
4:35 AM,39.2,28.4,65,29.91,10.0,North,-9999.0,-,N/A,,Overcast,0,2013-02-26 09:35:00
4:55 AM,39.6,27.7,62,29.91,10.0,North,-9999.0,-,N/A,,Overcast,0,2013-02-26 09:55:00
5:15 AM,39.6,27.5,62,29.91,10.0,North,-9999.0,-,N/A,,Overcast,0,2013-02-26 10:15:00
5:35 AM,39.4,27.7,63,29.90,10.0,North,-9999.0,-,N/A,,Mostly Cloudy,0,2013-02-26 10:35:00
5:55 AM,39.2,27.7,63,29.89,10.0,North,-9999.0,-,N/A,,Scattered Clouds,0,2013-02-26 10:55:00
6:15 AM,39.2,28.0,64,29.87,10.0,North,-9999.0,-,N/A,,Clear,0,2013-02-26 11:15:00
6:35 AM,39.6,28.8,65,29.87,10.0,North,-9999.0,-,N/A,,Scattered Clouds,0,2013-02-26 11:35:00
6:55 AM,39.7,29.5,67,29.87,10.0,North,-9999.0,-,N/A,,Mostly Cloudy,0,2013-02-26 11:55:00
7:15 AM,40.1,29.8,67,29.86,10.0,North,-9999.0,-,N/A,,Overcast,0,2013-02-26 12:15:00
7:35 AM,40.3,31.5,71,29.85,10.0,North,-9999.0,-,N/A,,Overcast,0,2013-02-26 12:35:00
7:55 AM,39.6,32.0,74,29.84,10.0,North,-9999.0,-,N/A,,Overcast,0,2013-02-26 12:55:00
8:15 AM,38.1,32.7,81,29.84,7.0,North,-9999.0,-,N/A,,Overcast,0,2013-02-26 13:15:00
8:35 AM,37.4,33.8,87,29.84,5.0,North,-9999.0,-,N/A,,Overcast,0,2013-02-26 13:35:00
8:55 AM,37.4,33.8,87,29.84,7.0,North,-9999.0,-,N/A,,Overcast,0,2013-02-26 13:55:00
9:15 AM,37.4,34.7,90,29.83,3.0,North,-9999.0,-,N/A,,Overcast,0,2013-02-26 14:15:00
9:35 AM,37.6,35.4,92,29.82,7.0,North,-9999.0,-,N/A,,Overcast,0,2013-02-26 14:35:00
9:55 AM,37.8,35.6,92,29.80,4.0,North,-9999.0,-,N/A,,Overcast,0,2013-02-26 14:55:00
10:15 AM,38.5,36.3,92,29.78,7.0,North,-9999.0,-,N/A,,Overcast,0,2013-02-26 15:15:00
10:35 AM,39.9,37.6,91,29.75,10.0,North,-9999.0,-,N/A,,Overcast,0,2013-02-26 15:35:00
10:55 AM,41.5,37.8,86,29.75,10.0,North,-9999.0,-,N/A,,Overcast,0,2013-02-26 15:55:00
11:15 AM,42.6,37.8,83,29.72,10.0,North,-9999.0,-,N/A,,Overcast,0,2013-02-26 16:15:00
11:35 AM,43.2,38.5,84,29.71,10.0,North,-9999.0,-,N/A,Rain,Light Rain,0,2013-02-26 16:35:00
11:55 AM,43.2,39.6,87,29.69,5.0,North,-9999.0,-,N/A,,Overcast,0,2013-02-26 16:55:00
12:15 PM,43.9,40.5,88,29.67,10.0,North,-9999.0,-,N/A,,Overcast,0,2013-02-26 17:15:00
12:35 PM,46.6,41.2,81,29.66,10.0,North,-9999.0,-,N/A,,Overcast,0,2013-02-26 17:35:00
12:55 PM,48.2,41.0,76,29.65,10.0,North,-9999.0,-,N/A,,Overcast,0,2013-02-26 17:55:00
1:35 PM,47.7,40.1,75,29.62,10.0,North,-9999.0,-,N/A,,Overcast,0,2013-02-26 18:35:00
1:55 PM,46.9,40.1,77,29.61,10.0,North,-9999.0,-,N/A,,Overcast,0,2013-02-26 18:55:00
2:15 PM,46.8,40.3,78,29.60,10.0,North,-9999.0,-,N/A,Rain,Light Rain,0,2013-02-26 19:15:00
2:35 PM,46.9,40.5,78,29.60,10.0,North,-9999.0,-,N/A,Rain,Light Rain,0,2013-02-26 19:35:00
2:55 PM,46.6,40.6,80,29.59,10.0,North,-9999.0,-,N/A,,Overcast,0,2013-02-26 19:55:00
3:15 PM,45.9,41.2,84,29.59,4.0,North,-9999.0,-,N/A,Rain,Rain,0,2013-02-26 20:15:00
3:35 PM,45.5,42.8,90,29.60,5.0,North,-9999.0,-,N/A,Rain,Light Rain,0,2013-02-26 20:35:00
3:55 PM,45.5,42.8,90,29.58,10.0,North,-9999.0,-,N/A,,Overcast,0,2013-02-26 20:55:00
4:15 PM,45.9,41.9,86,29.58,10.0,North,-9999.0,-,N/A,,Overcast,0,2013-02-26 21:15:00
4:35 PM,46.0,41.4,84,29.58,10.0,North,-9999.0,-,N/A,,Overcast,0,2013-02-26 21:35:00
4:55 PM,46.4,41.0,81,29.56,10.0,North,-9999.0,-,N/A,,Overcast,0,2013-02-26 21:55:00
5:15 PM,46.0,40.5,81,29.56,10.0,North,-9999.0,-,N/A,,Overcast,0,2013-02-26 22:15:00
5:35 PM,46.2,40.5,80,29.55,10.0,North,-9999.0,-,N/A,,Overcast,0,2013-02-26 22:35:00
5:55 PM,45.7,40.3,81,29.56,10.0,North,-9999.0,-,N/A,,Overcast,0,2013-02-26 22:55:00
6:15 PM,45.5,40.1,81,29.56,10.0,North,-9999.0,-,N/A,,Overcast,0,2013-02-26 23:15:00
6:35 PM,45.0,40.3,84,29.57,10.0,North,-9999.0,-,N/A,,Mostly Cloudy,0,2013-02-26 23:35:00
6:55 PM,44.6,40.3,85,29.57,10.0,North,-9999.0,-,N/A,,Mostly Cloudy,0,2013-02-26 23:55:00
7:15 PM,44.6,40.3,85,29.58,10.0,North,-9999.0,-,N/A,,Mostly Cloudy,0,2013-02-27 00:15:00
7:35 PM,44.6,40.5,85,29.59,10.0,North,-9999.0,-,N/A,,Overcast,0,2013-02-27 00:35:00
7:55 PM,44.6,40.6,86,29.60,10.0,North,-9999.0,-,N/A,,Overcast,0,2013-02-27 00:55:00
8:15 PM,44.6,40.8,87,29.60,10.0,North,-9999.0,-,N/A,,Overcast,0,2013-02-27 01:15:00
8:35 PM,43.7,41.2,91,29.60,7.0,North,-9999.0,-,N/A,Rain,Light Rain,0,2013-02-27 01:35:00
8:55 PM,43.2,41.9,95,29.62,5.0,North,-9999.0,-,N/A,Rain,Light Rain,0,2013-02-27 01:55:00
9:15 PM,43.2,42.4,97,29.62,5.0,North,-9999.0,-,N/A,Rain,Light Rain,0,2013-02-27 02:15:00
9:35 PM,42.8,42.3,98,29.62,10.0,North,-9999.0,-,N/A,,Overcast,0,2013-02-27 02:35:00
9:55 PM,42.8,42.4,99,29.63,10.0,North,-9999.0,-,N/A,,Overcast,0,2013-02-27 02:55:00
10:15 PM,42.3,42.1,99,29.63,10.0,North,-9999.0,-,N/A,,Overcast,0,2013-02-27 03:15:00
10:35 PM,41.9,41.9,100,29.63,10.0,North,-9999.0,-,N/A,,Overcast,0,2013-02-27 03:35:00
10:55 PM,41.9,41.9,100,29.63,10.0,North,-9999.0,-,N/A,,Overcast,0,2013-02-27 03:55:00
11:15 PM,41.9,41.9,100,29.63,10.0,North,-9999.0,-,N/A,,Overcast,0,2013-02-27 04:15:00
11:35 PM,42.6,42.6,100,29.63,10.0,North,-9999.0,-,N/A,,Overcast,0,2013-02-27 04:35:00
11:55 PM,42.3,42.3,100,29.63,10.0,North,-9999.0,-,N/A,,Overcast,0,2013-02-27 04:55:00